User: anonymous   Login
Location: Bailleul
(50.3375°N, 2.8513°E)
Time: 20:33:08
(UTC+00:00)
Language:

Sich 1 - Orbit

View from above orbital plane
View from above orbital plane
View from above satellite
View from above satellite

Ground track
Ground track

The orbit data is extracted from the following two-line orbital elements,

1 23657U 95046A   21172.59566798  .00000162  00000-0  15613-4 0  9994
2 23657  82.5266 323.6919 0020474 269.5603  90.3267 14.86300085395116
Epoch (UTC): 21 June 2021 14:17:45
Eccentricity: 0.0020474
inclination: 82.5266°
perigee height: 595 km
apogee height: 624 km
right ascension of ascending node: 323.6919°
argument of perigee: 269.5603°
revolutions per day: 14.86300085
mean anomaly at epoch: 90.3267°
orbit number at epoch: 39511

The dashed part of the orbit path shows where the satellite is in the earth's shadow,  

DLR